Weather History for Flint, MI

Change the Weather History Date:

Wednesday, June 26, 2013

  Actual Average Record
Temperature  
Mean Temperature 76 °F 69 °F  
Max Temperature 86 °F 81 °F 99 °F (1921)
Min Temperature 66 °F 58 °F 43 °F (1981)
Degree Days  
Heating Degree Days 0 1  
Month to date heating degree days 41 62  
Since 1 June heating degree days 41 62  
Since 1 July heating degree days 6462 6949  
Cooling Degree Days 11 5  
Month to date cooling degree days 129 89  
Year to date cooling degree days 208 121  
Since 1 June cooling degree days 129 89  
Growing Degree Days 26 (Base 50)    
Moisture  
Dew Point 66 °F    
Average Humidity 74    
Maximum Humidity 93    
Minimum Humidity 55    
Precipitation  
Precipitation T in 0.09 in 0.82 in (1989)
Month to date precipitation 3.66 2.68  
Year to date precipitation 20.42 13.67  
Snow  
Snow 0.00 in 0.00 in 0.00 in ()
Month to date snowfall 0.0 0.0  
Since 1 June snowfall 0.0 0.0  
Since 1 July snowfall 43.8 47.4  
Snow Depth 0.00 in    
Sea Level Pressure  
Sea Level Pressure 29.81 in    
Wind  
Wind Speed 3 mph (SSW)    
Max Wind Speed 22 mph    
Max Gust Speed 23 mph    
Visibility 10 miles    
Events Rain    
T = Trace of Precipitation, MM = Missing Value Source: NWS Daily Summary

Daily Weather History Graph

Daily Weather History Graph

Search for Another Location

Airport:

Trip Planner

Search our weather history database for the weather conditions in past years. The results will help you decide how hot, cold, wet, or windy it might be!

Date:

Astronomy

Jun. 26, 2013 Rise Set
Actual Time 5:57 AM EDT 9:18 PM EDT
Civil Twilight 5:22 AM EDT 9:53 PM EDT
Nautical Twilight 4:36 AM EDT 10:39 PM EDT
Astronomical Twilight 3:39 AM EDT 11:35 PM EDT
Moon 11:33 PM EDT (6/26) 9:54 AM EDT (6/26)
Length of Visible Light 16h 31m
Length of Day
15h 20m
Waning Gibbous, 85% of the Moon is Illuminated
Jun 26
Waning Gibbous
Jun 30
Last Quarter
Jul 8
New
Jul 15
First Quarter
Jul 22
Full

Hourly Weather History & Observations

Time (EDT) Temp. Heat Index Dew Point Humidity Pressure Visibility Wind Dir Wind Speed Gust Speed Precip Events Conditions
12:53 AM 73.9 °F - 68.0 °F 82% 29.86 in 10.0 mi SW 5.8 mph - N/A   Overcast
1:53 AM 72.0 °F - 64.9 °F 78% 29.86 in 10.0 mi WSW 5.8 mph - N/A   Mostly Cloudy
2:53 AM 69.1 °F - 64.0 °F 84% 29.83 in 10.0 mi North - - N/A   Clear
3:53 AM 66.9 °F - 63.0 °F 87% 29.81 in 10.0 mi Calm Calm - N/A   Clear
4:53 AM 66.9 °F - 63.0 °F 87% 29.82 in 10.0 mi Calm Calm - N/A   Clear
5:53 AM 66.9 °F - 64.0 °F 90% 29.82 in 10.0 mi SSW 4.6 mph - N/A   Clear
6:53 AM 68.0 °F - 64.0 °F 87% 29.83 in 10.0 mi SSW 5.8 mph - N/A   Clear
7:53 AM 72.0 °F - 66.0 °F 81% 29.84 in 10.0 mi SW 4.6 mph - N/A   Clear
8:36 AM 73.4 °F - 66.2 °F 78% 29.86 in 10.0 mi WSW 3.5 mph - N/A   Partly Cloudy
8:53 AM 75.0 °F - 66.9 °F 76% 29.84 in 10.0 mi SW 8.1 mph - N/A   Clear
9:29 AM 75.2 °F - 66.2 °F 73% 29.86 in 10.0 mi SW 8.1 mph - N/A   Mostly Cloudy
9:53 AM 75.9 °F - 66.0 °F 71% 29.85 in 10.0 mi SW 6.9 mph - N/A   Overcast
10:53 AM 75.9 °F - 66.9 °F 74% 29.85 in 10.0 mi WSW 6.9 mph - N/A   Overcast
11:53 AM 79.0 °F - 66.9 °F 66% 29.85 in 10.0 mi SW 6.9 mph - N/A   Mostly Cloudy
12:53 PM 81.0 °F 83.8 °F 68.0 °F 65% 29.83 in 10.0 mi Variable 6.9 mph - N/A   Mostly Cloudy
1:53 PM 82.0 °F 84.5 °F 66.9 °F 60% 29.83 in 10.0 mi Variable 4.6 mph - N/A   Scattered Clouds
2:53 PM 82.9 °F 85.4 °F 66.9 °F 58% 29.80 in 10.0 mi SSE 3.5 mph - N/A   Clear
3:53 PM 84.9 °F 87.6 °F 66.9 °F 55% 29.80 in 10.0 mi Calm Calm - N/A   Clear
4:53 PM 82.9 °F 85.4 °F 66.9 °F 58% 29.78 in 10.0 mi Calm Calm - N/A   Clear
5:53 PM 82.9 °F 85.4 °F 66.9 °F 58% 29.77 in 10.0 mi South 4.6 mph - N/A   Clear
6:53 PM 82.9 °F 85.8 °F 68.0 °F 60% 29.76 in 10.0 mi Calm Calm - N/A   Clear
7:53 PM 82.9 °F 85.8 °F 68.0 °F 60% 29.75 in 10.0 mi Calm Calm - N/A   Clear
8:53 PM 81.0 °F 83.8 °F 68.0 °F 65% 29.75 in 10.0 mi Calm Calm - N/A   Clear
9:53 PM 78.1 °F - 69.1 °F 74% 29.75 in 10.0 mi North - - N/A   Overcast
10:10 PM 73.4 °F - 66.2 °F 78% 29.79 in 8.0 mi East 12.7 mph 23.0 mph 0.00 in Rain Light Rain
10:30 PM 71.6 °F - 66.2 °F 83% 29.79 in 10.0 mi East 9.2 mph - 0.00 in   Overcast
10:53 PM 72.0 °F - 64.9 °F 78% 29.77 in 10.0 mi NNE 4.6 mph - 0.00 in   Mostly Cloudy
11:53 PM 71.1 °F - 66.0 °F 84% 29.76 in 10.0 mi Calm Calm - N/A   Clear